Regional Weather Roundup
Issued by NWS Cleveland, OH

Home | Current Version | Previous Version | Graphics & Text | Print | Product List | Glossary On
Versions: 1 2 3 4 5 6 7 8 9 10 11 12 13 14 15 16 17 18 19 20 21 22 23 24 25 26 27 28 29 30 31 32 33 34 35 36 37 38 39 40 41 42 43 44 45 46 47 48 49 50
000
ASUS41 KCLE 181202
RWRCLE
OHIO REGIONAL WEATHER ROUNDUP
NATIONAL WEATHER SERVICE CLEVELAND, OH
800 AM EDT FRI AUG 18 2017

NOTE: "FAIR" INDICATES FEW OR NO CLOUDS BELOW 12,000 FEET WITH NO
SIGNIFICANT WEATHER AND/OR OBSTRUCTIONS TO VISIBILITY.

OHZ001>008-015>018-024>027-034-035-043-044-181300-
   NORTHWEST OHIO

CITY           SKY/WX    TMP DP  RH WIND       PRES   REMARKS
DEFIANCE       SUNNY     68  64  87 SW6       29.80S
FINDLAY        SUNNY     71  65  81 SW9       29.81R
TOLEDO EXPRESS SUNNY     68  67  96 SW9       29.78S
TOLEDO EXEC    SUNNY     70  68  93 SW10      29.79S
LIMA           SUNNY     69  67  93 SW9       29.84R
$$

OHZ009>014-019>023-028>033-038-089-181300-
   NORTHEAST OHIO

CITY           SKY/WX    TMP DP  RH WIND       PRES   REMARKS
CLE-HOPKINS    MOSUNNY   74  70  87 SW8       29.82S
CLE-LAKEFRONT  MOSUNNY   75  68  78 S17G23    29.78S
CUY CO. ARPT   NOT AVBL
LORAIN-ELYRIA  SUNNY     71  65  81 SW7       29.81S
ASHTABULA      PTSUNNY   72  71  97 SW7       29.81S
AKRON-CANTON   PTSUNNY   74  70  87 W6        29.83F
WOOSTER        MOSUNNY   72  71  97 W7        29.84S
MANSFIELD      PTSUNNY   71  69  93 SW9       29.85R
YOUNGSTOWN     CLOUDY    72  70  93 SW6       29.83S
$$

OHZ042-051>053-060>062-070>072-077>081-181300-
  SOUTHWEST OHIO

CITY           SKY/WX    TMP DP  RH WIND       PRES   REMARKS
CINC-COVINGTON MOSUNNY   73  73 100 SW5       29.89S
CINC-LUNKEN    MOSUNNY   74  74 100 CALM      29.88S
HAMILTON       MOSUNNY   74  73  97 SW3       29.88S
DAYTON         MOSUNNY   70  69  97 W9        29.88R
WRIGHT-PAT AFB NOT AVBL
DAYTON GENERAL MOSUNNY   73  70  90 SW5       29.87S
WILMINGTON     PTSUNNY   73  73 100 W7        29.88R FOG
$$

OHZ036-037-039>041-045>050-054>059-063>069-073>076-082>088-181300-
  CENTRAL AND SOUTHEAST OHIO

CITY           SKY/WX    TMP DP  RH WIND       PRES   REMARKS
COLUMBUS       MOSUNNY   74  73  97 SW7       29.84F
OSU AIRPORT    SUNNY     73  73 100 SW8       29.85S
BOLTON FIELD   MOSUNNY   72  72 100 W6        29.86F FOG
RICKENBACK AFB SUNNY     72  72 100 SW6       29.85S FOG
NEWARK         MOSUNNY   75  72  90 SW6       29.84F
MARION         SUNNY     72  67  84 SW8       29.85R
LANCASTER      PTSUNNY   74  73  97 SW6       29.86S
ZANESVILLE     CLOUDY    74  72  93 SW5       29.85S
NEW PHILLY     NOT AVBL
$$




USA.gov is the U.S. government's official web portal to all federal, state and local government web resources and services.